Location: Trébons-de-Luchon
(42.8036°N, 0.5656°E)
Time: 10:48:05
(UTC+02:00)

ISS - Visible Passes

Search period start: 09 May 2021 00:00
Search period end: 19 May 2021 00:00
Orbit: 418 x 421 km, 51.6° (Epoch: 09 May)

Date Brightness Start Highest point End Pass type
(mag) Time Alt. Az. Time Alt. Az. Time Alt. Az.
09 May -1.4 03:36:22 21° NNW 03:36:44 21° NNW 03:39:24 10° NE visible
09 May -1.1 05:11:52 10° NW 05:14:25 19° N 05:16:58 10° ENE visible
10 May -1.0 02:50:23 20° NNE 02:50:23 20° NNE 02:51:59 10° NE visible
10 May -1.0 04:24:20 10° NW 04:26:46 18° N 04:29:12 10° NE visible
10 May -2.0 06:01:07 10° NW 06:04:16 35° NNE 06:07:26 10° E visible
11 May -0.5 02:04:20 12° NE 02:04:20 12° NE 02:04:36 10° NE visible
11 May -1.0 03:37:16 13° NW 03:39:06 18° N 03:41:31 10° NE visible
11 May -1.5 05:13:45 10° NW 05:16:43 27° NNE 05:19:39 10° E visible
12 May -1.1 02:51:10 19° NNW 02:51:26 19° N 02:53:56 10° NE visible
12 May -1.2 04:26:22 10° NW 04:29:05 22° NNE 04:31:50 10° ENE visible
12 May -3.6 06:02:56 10° NW 06:06:19 79° NE 06:09:41 10° ESE visible
13 May -0.9 02:05:00 17° NNE 02:05:00 17° NNE 02:06:26 10° NE visible
13 May -1.0 03:38:54 10° NW 03:41:27 19° N 03:44:00 10° ENE visible
13 May -2.8 05:15:31 10° NW 05:18:50 51° NNE 05:22:08 10° ESE visible
14 May -0.7 01:18:35 12° NE 01:18:35 12° NE 01:19:01 10° NE visible
14 May -0.9 02:51:28 10° NW 02:53:47 18° N 02:56:13 10° NE visible
14 May -2.1 04:28:09 10° NW 04:31:18 35° NNE 04:34:27 10° E visible
14 May -3.6 22:48:26 10° SW 22:51:39 46° SE 22:54:54 10° ENE visible
15 May -1.9 00:25:31 10° W 00:28:34 31° NNW 00:31:37 10° NE visible
15 May -0.8 02:03:43 10° NW 02:06:07 18° N 02:08:31 10° NE visible
15 May -1.6 03:40:47 10° NW 03:43:44 27° NNE 03:46:40 10° E visible
15 May -3.8 05:17:24 10° WNW 05:20:45 63° SW 05:24:04 10° SE visible
15 May -2.8 22:01:25 10° SSW 22:04:18 27° SE 22:07:13 10° ENE visible
15 May -2.5 23:37:46 10° W 23:41:00 43° NNW 23:44:15 10° NE visible
16 May -0.9 01:15:57 10° NW 01:18:26 19° N 01:20:55 10° NE visible
16 May -1.2 02:53:22 10° NW 02:56:06 22° NNE 02:58:50 10° ENE visible
16 May -3.7 04:29:56 10° NW 04:33:19 80° NNE 04:36:41 10° ESE visible
16 May -3.4 22:50:09 10° WSW 22:53:29 65° NNW 22:56:51 10° NE visible
17 May -1.1 00:28:08 10° WNW 00:30:47 21° NNW 00:33:26 10° NE visible
17 May -1.0 02:05:53 10° NW 02:08:27 19° N 02:11:00 10° ENE visible
17 May -2.9 03:42:31 10° NW 03:45:49 51° NNE 03:49:07 10° ESE visible
17 May -2.6 05:19:44 10° W 05:22:26 22° SW 05:25:06 10° S visible
17 May -3.8 22:02:41 10° SW 22:06:01 79° SE 22:09:23 10° ENE visible
17 May -1.3 23:40:17 10° WNW 23:43:07 25° NNW 23:45:59 10° NE visible
18 May -0.9 01:18:21 10° NW 01:20:46 18° N 01:22:50 12° NE visible
18 May -1.0 02:55:07 10° NW 02:55:43 14° NW 02:55:43 14° NW visible
18 May -1.8 22:52:28 10° W 22:55:31 31° NNW 22:58:35 10° NE visible
